Weather History for KJXN - November, 2013

Change the Weather History Date:

Tuesday, November 19, 2013

  Actual Average Record
Temperature  
Mean Temperature 35 °F 38 °F  
Max Temperature 43 °F 46 °F 69 °F (1953)
Min Temperature 27 °F 31 °F 9 °F (1986)
Degree Days  
Heating Degree Days 30 27  
Month to date heating degree days 450 436  
Since 1 July heating degree days 1072 1084  
Cooling Degree Days 0 0  
Month to date cooling degree days 0 0  
Year to date cooling degree days 616 592  
Moisture  
Dew Point 21 °F    
Average Humidity 57    
Maximum Humidity 75    
Minimum Humidity 39    
Precipitation  
Precipitation 0.00 in 0.09 in 0.89 in (1948)
Month to date precipitation 1.24 1.69  
Year to date precipitation 30.75 28.72  
Sea Level Pressure  
Sea Level Pressure 30.31 in    
Wind  
Wind Speed 6 mph (NNW)    
Max Wind Speed 14 mph    
Max Gust Speed 22 mph    
Visibility 10 miles    
Events      
T = Trace of Precipitation, MM = Missing Value Source: NWS Daily Summary

Daily Weather History Graph

Daily Weather History Graph

Search for Another Location

Airport or City:

Trip Planner

Search our weather history database for the weather conditions in past years. The results will help you decide how hot, cold, wet, or windy it might be!

Date:

Astronomy

Nov. 19, 2013 Rise Set
Actual Time 7:33 AM EST 5:12 PM EST
Civil Twilight 7:03 AM EST 5:43 PM EST
Nautical Twilight 6:28 AM EST 6:17 PM EST
Astronomical Twilight 5:55 AM EST 6:50 PM EST
Moon 7:02 PM EST (11/19) 9:12 AM EST (11/19)
Length of Visible Light 10h 40m
Length of Day
9h 39m
Waning Gibbous, 96% of the Moon is Illuminated
Nov 19
Waning Gibbous
Nov 25
Last Quarter
Dec 2
New
Dec 9
First Quarter
Dec 17
Full

Hourly Weather History & Observations

Time (EST) Temp. Windchill Dew Point Humidity Pressure Visibility Wind Dir Wind Speed Gust Speed Precip Events Conditions
12:56 AM 34.0 °F 25.5 °F 21.9 °F 61% 30.18 in 10.0 mi WNW 11.5 mph 16.1 mph N/A   Overcast
1:56 AM 34.0 °F 28.0 °F 21.9 °F 61% 30.20 in 10.0 mi NW 6.9 mph - N/A   Overcast
2:56 AM 33.1 °F 26.9 °F 23.0 °F 66% 30.21 in 10.0 mi WNW 6.9 mph - N/A   Overcast
3:33 AM 33.1 °F 26.1 °F 21.9 °F 64% 30.19 in 10.0 mi NW 8.1 mph 17.3 mph N/A   Overcast
3:56 AM 33.1 °F 26.1 °F 21.9 °F 64% 30.23 in 10.0 mi WNW 8.1 mph - N/A   Overcast
4:06 AM 33.1 °F 26.1 °F 21.9 °F 64% 30.20 in 10.0 mi WNW 8.1 mph - N/A   Overcast
4:56 AM 33.1 °F 25.5 °F 21.9 °F 64% 30.26 in 10.0 mi NW 9.2 mph - N/A   Overcast
5:31 AM 33.1 °F 24.9 °F 21.9 °F 64% 30.24 in 10.0 mi NNW 10.4 mph - N/A   Overcast
5:53 AM 32.0 °F 23.6 °F 21.2 °F 64% 30.25 in 10.0 mi NW 10.4 mph - N/A   Overcast
5:56 AM 32.0 °F 23.0 °F 21.0 °F 64% 30.28 in 10.0 mi NNW 11.5 mph - N/A   Overcast
6:56 AM 30.9 °F 24.3 °F 19.9 °F 64% 30.31 in 10.0 mi NNW 6.9 mph - N/A   Overcast
7:56 AM 28.9 °F 22.8 °F 21.0 °F 72% 30.32 in 10.0 mi NW 5.8 mph - N/A   Clear
8:56 AM 33.1 °F 26.9 °F 21.0 °F 61% 30.35 in 10.0 mi NNW 6.9 mph - N/A   Clear
9:56 AM 36.0 °F 29.6 °F 21.0 °F 55% 30.36 in 10.0 mi NNW 8.1 mph - N/A   Clear
10:56 AM 37.0 °F 32.4 °F 21.0 °F 52% 30.37 in 10.0 mi NW 5.8 mph - N/A   Clear
11:56 AM 39.0 °F 35.7 °F 21.0 °F 49% 30.36 in 10.0 mi Variable 4.6 mph - N/A   Clear
12:56 PM 41.0 °F 39.0 °F 21.9 °F 47% 30.35 in 10.0 mi Variable 3.5 mph - N/A   Clear
1:56 PM 42.1 °F - 19.9 °F 41% 30.33 in 10.0 mi Calm Calm - N/A   Clear
2:56 PM 42.1 °F 40.2 °F 19.9 °F 41% 30.33 in 10.0 mi North 3.5 mph - N/A   Clear
3:56 PM 42.1 °F 40.2 °F 19.0 °F 40% 30.34 in 10.0 mi NE 3.5 mph - N/A   Clear
4:56 PM 37.9 °F 35.5 °F 19.0 °F 47% 30.36 in 10.0 mi NE 3.5 mph - N/A   Clear
5:56 PM 36.0 °F 33.3 °F 19.0 °F 50% 30.38 in 10.0 mi East 3.5 mph - N/A   Clear
6:56 PM 32.0 °F 28.7 °F 19.9 °F 61% 30.39 in 10.0 mi ENE 3.5 mph - N/A   Clear
7:56 PM 30.0 °F 26.5 °F 21.0 °F 69% 30.39 in 5.0 mi East 3.5 mph - N/A   Haze
8:56 PM 30.0 °F 25.2 °F 19.9 °F 66% 30.39 in 10.0 mi SE 4.6 mph - N/A   Clear
9:56 PM 28.9 °F 22.8 °F 21.0 °F 72% 30.40 in 10.0 mi SE 5.8 mph - N/A   Clear
10:56 PM 28.0 °F 21.7 °F 21.0 °F 75% 30.40 in 10.0 mi SE 5.8 mph - N/A   Clear
11:56 PM 28.9 °F 25.2 °F 21.9 °F 75% 30.40 in 10.0 mi SE 3.5 mph - N/A   Clear